Date_and_time,latitude,longitude,wind_speed,RelWindDirFrom,WindDirFrom,air_pressure,air_temperature,relative_humidity,Temp,platform_speed_wrt_ground,air_pressure_at_mean_sea_level,platform_orientation
2019-02-27 00:00,50.6304433333333,-96.9807616666667,10.1,13.3,181,1000.13,-17.9,65,0.34,0.0,1030.30,60.8
2019-02-27 00:00,50.6304433333333,-96.9807616666667,10.4,10.5,183,1000.02,-17.9,65,0.34,0.0,1030.19,90.0
2019-02-27 00:10,50.6304433333333,-96.9807633333333,10.1,12.4,181,1000.00,-17.9,65,0.35,0.0,1030.16,90.0
2019-02-27 00:20,50.6304433333333,-96.980765,9.2,11.2,181,999.92,-17.9,65,0.35,0.0,1030.09,90.0
2019-02-27 00:30,50.6304433333333,-96.9807666666667,9.1,10.7,176,999.76,-18.0,65,0.36,0.0,1029.93,90.0
2019-02-27 00:40,50.630445,-96.9807683333333,10.2,12.8,177,999.62,-18.2,65,0.36,0.0,1029.80,90.0
2019-02-27 00:50,50.630445,-96.98077,10.7,12.9,181,999.44,-18.3,66,0.36,0.0,1029.63,90.0
2019-02-27 01:00,50.630445,-96.98077,10.8,13.3,182,999.36,-18.5,67,0.36,0.0,1029.57,167.4
2019-02-27 01:10,50.6304466666667,-96.9807683333333,10.3,12.3,186,999.35,-18.7,67,0.36,0.0,1029.57,167.4
2019-02-27 01:20,50.630445,-96.9807683333333,10.6,13.4,190,999.21,-18.6,67,0.35,0.0,1029.44,167.4
2019-02-27 01:30,50.6304466666667,-96.98077,10.1,12.6,190,999.08,-18.6,67,0.36,0.0,1029.31,167.4
2019-02-27 01:40,50.6304466666667,-96.98077,10.6,13.1,189,998.96,-18.6,67,0.36,0.0,1029.19,167.4
2019-02-27 01:50,50.6304533333333,-96.9807583333333,10.3,13.7,191,998.84,-18.6,67,0.37,0.0,1029.06,167.4
2019-02-27 02:00,50.6304583333333,-96.980775,11.2,14.7,186,998.62,-18.9,67,0.36,0.0,1028.85,356.8
2019-02-27 02:10,50.6304483333333,-96.9807716666667,10.4,12.8,184,998.52,-19.1,67,0.36,0.0,1028.76,356.8
2019-02-27 02:20,50.630445,-96.98078,9.3,11.7,181,998.52,-19.4,68,0.36,0.0,1028.78,356.8
2019-02-27 02:30,50.6304483333333,-96.9807766666667,8.7,10.7,180,998.44,-19.6,68,0.35,0.0,1028.73,356.8
2019-02-27 02:40,50.6304483333333,-96.980775,8.6,11.3,186,998.36,-19.6,67,0.36,0.0,1028.64,356.8
2019-02-27 02:50,50.63045,-96.980775,9.3,12.3,191,998.14,-19.3,66,0.36,0.0,1028.42,356.8
2019-02-27 03:00,50.6304516666667,-96.9807716666667,9.0,12.8,191,998.15,-19.1,65,0.35,0.0,1028.42,347.4
2019-02-27 03:10,50.6304516666667,-96.98077,9.3,12.8,191,998.08,-19.0,65,0.35,0.0,1028.34,347.4
2019-02-27 03:20,50.6304516666667,-96.98077,9.1,11.9,194,998.04,-19.0,65,0.34,0.0,1028.30,347.4
2019-02-27 03:30,50.6304566666667,-96.980785,9.6,12.8,197,997.91,-18.9,64,0.35,0.0,1028.16,347.4
2019-02-27 03:40,50.63047,-96.9808033333333,9.1,11.5,192,997.79,-19.1,63,0.35,0.0,1028.05,347.4
2019-02-27 03:50,50.63045,-96.980775,8.7,10.7,189,997.60,-19.2,63,0.35,0.0,1027.88,347.4
2019-02-27 04:00,50.6304533333333,-96.9807666666667,8.2,10.6,192,997.56,-19.3,62,0.35,0.0,1027.86,360.0
2019-02-27 04:10,50.6304566666667,-96.980765,8.6,11.2,199,997.53,-19.1,61,0.34,0.0,1027.83,360.0
2019-02-27 04:20,50.630455,-96.9807633333333,9.9,13.4,202,997.39,-18.8,59,0.34,0.0,1027.68,360.0
2019-02-27 04:30,50.6304566666667,-96.9807783333333,9.7,14.0,204,997.38,-18.5,59,0.34,0.0,1027.65,360.0
2019-02-27 04:40,50.6304566666667,-96.9807666666667,8.6,10.8,200,997.34,-18.6,59,0.35,0.0,1027.59,360.0
2019-02-27 04:50,50.6304616666667,-96.9807683333333,8.1,9.9,198,997.25,-18.7,59,0.35,0.0,1027.49,360.0
2019-02-27 05:00,50.6304583333333,-96.98077,9.0,12.0,194,997.18,-19.0,60,0.34,0.0,1027.45,90.0
2019-02-27 05:10,50.6304616666667,-96.9807716666667,9.0,11.2,201,997.20,-19.0,60,0.34,0.0,1027.46,90.0
2019-02-27 05:20,50.6304583333333,-96.9807716666667,9.5,11.6,207,997.04,-19.0,59,0.34,0.0,1027.29,90.0
2019-02-27 05:30,50.6304583333333,-96.9807716666667,9.9,12.5,211,997.00,-19.0,60,0.34,0.0,1027.26,90.0
2019-02-27 05:40,50.6304583333333,-96.9807716666667,9.7,13.2,210,996.97,-19.0,60,0.36,0.0,1027.23,90.0
2019-02-27 05:50,50.6304583333333,-96.9807716666667,8.5,11.4,209,996.94,-19.2,61,0.35,0.0,1027.22,90.0
2019-02-27 06:00,50.630425,-96.9807583333333,9.8,13.1,206,996.79,-19.3,62,0.34,0.0,1027.06,159.9
2019-02-27 06:10,50.6304583333333,-96.9807416666667,9.5,12.3,208,996.64,-19.3,63,0.35,0.0,1026.88,159.9
2019-02-27 06:20,50.6304583333333,-96.9807666666667,10.0,13.1,209,996.47,-19.3,64,0.35,0.0,1026.69,159.9
2019-02-27 06:30,50.6304533333333,-96.9807666666667,8.2,11.3,208,996.49,-19.4,65,0.34,0.0,1026.73,159.9
2019-02-27 06:40,50.6304516666667,-96.9807666666667,7.0,9.7,207,996.55,-19.4,66,0.35,0.0,1026.81,159.9
2019-02-27 06:50,50.6304516666667,-96.98077,6.5,8.6,200,996.52,-19.7,66,0.34,0.0,1026.80,159.9
2019-02-27 07:00,50.6304533333333,-96.98077,7.1,8.8,200,996.42,-20.0,67,0.34,0.0,1026.72,0.0
2019-02-27 07:10,50.6304516666667,-96.98077,7.3,8.9,198,996.26,-20.4,68,0.34,0.0,1026.57,0.0
2019-02-27 07:20,50.6304533333333,-96.9807616666667,5.4,6.9,195,996.29,-21.0,69,0.34,0.0,1026.64,0.0
2019-02-27 07:30,50.630445,-96.9807816666667,5.5,6.0,187,996.23,-21.4,70,0.33,0.0,1026.61,0.0
2019-02-27 07:40,50.6304483333333,-96.9807616666667,6.8,8.3,194,995.97,-21.5,71,0.33,0.0,1026.35,0.0
2019-02-27 07:50,50.63045,-96.9807666666667,7.3,8.6,198,995.79,-21.7,72,0.34,0.0,1026.19,0.0
2019-02-27 08:00,50.6304516666667,-96.9807683333333,7.5,9.9,202,995.66,-21.5,73,0.34,0.0,1026.05,142.0
2019-02-27 08:10,50.6304433333333,-96.98076,9.2,12.0,204,995.52,-20.7,72,0.33,0.0,1025.85,142.0
2019-02-27 08:20,50.6304466666667,-96.9807733333333,9.6,13.4,204,995.32,-20.3,71,0.33,0.0,1025.63,142.0
2019-02-27 08:30,50.63045,-96.9807733333333,10.2,13.4,208,995.23,-20.3,70,0.33,0.0,1025.53,142.0
2019-02-27 08:40,50.6304516666667,-96.9807733333333,9.6,12.3,207,995.05,-20.3,70,0.33,0.0,1025.37,142.0
2019-02-27 08:50,50.6304566666667,-96.98077,9.1,12.4,211,994.89,-20.4,69,0.33,0.0,1025.23,142.0
2019-02-27 09:00,50.6304516666667,-96.9807583333333,8.7,11.6,208,994.82,-20.4,69,0.33,0.0,1025.18,9.8
2019-02-27 09:10,50.6304566666667,-96.9807683333333,7.7,10.7,213,994.75,-20.4,68,0.33,0.0,1025.13,9.8
2019-02-27 09:20,50.630455,-96.9807666666667,6.3,8.9,216,994.73,-20.5,68,0.33,0.0,1025.16,9.8
2019-02-27 09:30,50.6304533333333,-96.9807683333333,7.5,10.2,215,994.63,-20.6,69,0.33,0.0,1025.06,9.8
2019-02-27 09:40,50.630455,-96.98077,8.2,9.8,218,994.50,-20.8,69,0.34,0.0,1024.94,9.8
2019-02-27 09:50,50.630455,-96.9807666666667,8.8,12.0,215,994.32,-20.8,69,0.33,0.0,1024.75,9.8
2019-02-27 10:00,50.630455,-96.980765,8.7,11.3,216,994.22,-20.7,69,0.34,0.0,1024.60,0.0
2019-02-27 10:10,50.630455,-96.9807633333333,9.0,12.3,217,994.08,-20.8,69,0.33,0.0,1024.44,0.0
2019-02-27 10:20,50.6304566666667,-96.9807616666667,9.3,12.3,218,993.91,-20.9,69,0.33,0.0,1024.25,0.0
2019-02-27 10:30,50.6304566666667,-96.9807616666667,9.4,11.8,218,993.84,-20.8,69,0.33,0.0,1024.19,0.0
2019-02-27 10:40,50.6304566666667,-96.9807616666667,10.2,13.7,217,993.63,-20.8,69,0.34,0.0,1023.98,0.0
2019-02-27 10:50,50.6304566666667,-96.9807616666667,9.0,11.7,217,993.60,-20.7,69,0.34,0.0,1023.94,0.0
2019-02-27 11:00,50.630455,-96.9807616666667,8.8,10.7,218,993.61,-20.8,69,0.34,0.0,1023.95,90.0
2019-02-27 11:10,50.630455,-96.9807616666667,9.4,11.7,218,993.45,-21.0,69,0.35,0.0,1023.81,90.0
2019-02-27 11:20,50.630455,-96.9807616666667,8.8,12.0,219,993.22,-21.1,69,0.34,0.0,1023.59,90.0
2019-02-27 11:30,50.630455,-96.9807616666667,7.7,10.2,216,993.13,-21.3,69,0.34,0.0,1023.51,90.0
2019-02-27 11:40,50.6304533333333,-96.9807616666667,7.6,10.0,216,993.14,-21.3,70,0.33,0.0,1023.52,90.0
2019-02-27 11:50,50.630465,-96.980755,7.9,10.1,219,992.98,-21.4,70,0.33,0.0,1023.36,90.0
2019-02-27 12:00,50.63046,-96.9807583333333,7.6,10.5,222,992.93,-21.5,70,0.33,0.0,1023.32,38.0
2019-02-27 12:10,50.6304516666667,-96.9807666666667,6.1,8.3,226,992.99,-21.5,70,0.33,0.0,1023.39,38.0
2019-02-27 12:20,50.6304516666667,-96.9807633333333,5.0,7.1,222,993.05,-21.6,70,0.33,0.0,1023.45,38.0
2019-02-27 12:30,50.63045,-96.9807666666667,4.1,6.6,214,992.93,-21.7,70,0.33,0.0,1023.33,38.0
2019-02-27 12:40,50.6304483333333,-96.9807683333333,4.8,6.7,206,992.75,-21.8,70,0.32,0.0,1023.15,38.0
2019-02-27 12:50,50.6304483333333,-96.98077,4.7,6.2,213,992.72,-21.9,71,0.32,0.0,1023.13,38.0
2019-02-27 13:00,50.6304483333333,-96.98077,4.8,6.6,214,992.69,-22.0,70,0.32,0.0,1023.11,142.0
2019-02-27 13:10,50.63045,-96.9807716666667,4.3,5.6,212,992.76,-22.0,70,0.33,0.0,1023.19,142.0
2019-02-27 13:20,50.63045,-96.9807716666667,4.1,4.9,215,992.72,-22.1,70,0.33,0.0,1023.17,142.0
2019-02-27 13:30,50.63045,-96.9807733333333,3.1,4.8,208,992.75,-22.2,70,0.33,0.0,1023.21,142.0
2019-02-27 13:40,50.63045,-96.9807733333333,3.3,5.8,214,992.72,-22.1,70,0.33,0.0,1023.18,142.0
2019-02-27 13:50,50.6304483333333,-96.9807716666667,3.3,5.0,193,992.50,-22.1,69,0.32,0.0,1022.95,142.0
2019-02-27 14:00,50.6304483333333,-96.9807716666667,3.2,4.2,180,992.76,-22.6,69,0.32,0.0,1023.26,240.8
2019-02-27 14:10,50.6304483333333,-96.9807716666667,3.4,4.2,180,992.82,-22.6,70,0.32,0.0,1023.33,240.8
2019-02-27 14:20,50.6304416666667,-96.9807816666667,3.5,4.5,159,992.87,-22.5,70,0.32,0.0,1023.37,240.8
2019-02-27 14:30,50.6304483333333,-96.9807716666667,4.3,5.8,174,992.87,-22.7,69,0.32,0.0,1023.39,240.8
2019-02-27 14:40,50.6304466666667,-96.980765,4.4,5.4,179,992.80,-22.4,69,0.32,0.0,1023.31,240.8
2019-02-27 14:50,50.6304466666667,-96.9807683333333,5.0,5.7,169,992.72,-22.1,68,0.31,0.0,1023.21,240.8
2019-02-27 15:00,50.6304483333333,-96.9807716666667,5.2,6.2,159,992.64,-21.8,67,0.31,0.0,1023.11,216.6
2019-02-27 15:10,50.63045,-96.98077,4.6,8.1,173,992.61,-21.6,68,0.31,0.0,1023.07,216.6
2019-02-27 15:20,50.63045,-96.9807683333333,5.2,8.1,191,992.61,-20.9,67,0.31,0.0,1023.04,216.6
2019-02-27 15:30,50.63045,-96.98077,6.2,8.9,198,992.50,-19.8,64,0.32,0.0,1022.86,216.6
2019-02-27 15:40,50.6304483333333,-96.98077,7.9,10.0,205,992.37,-19.3,62,0.31,0.0,1022.69,216.6
2019-02-27 15:50,50.6304466666667,-96.9807683333333,7.5,9.6,203,992.39,-19.0,61,0.31,0.0,1022.72,216.6
2019-02-27 16:00,50.6304466666667,-96.98077,8.0,10.2,201,992.29,-18.8,61,0.32,0.0,1022.61,0.0
2019-02-27 16:10,50.6304483333333,-96.98077,7.3,10.0,201,992.26,-18.5,61,0.32,0.0,1022.55,0.0
2019-02-27 16:20,50.6304483333333,-96.98077,6.6,9.6,200,992.24,-18.2,60,0.32,0.0,1022.52,0.0
2019-02-27 16:30,50.6304483333333,-96.98077,7.7,10.1,208,992.21,-17.7,60,0.32,0.0,1022.45,0.0
2019-02-27 16:40,50.6304483333333,-96.9807683333333,8.7,12.4,216,992.30,-17.4,60,0.32,0.0,1022.50,0.0
2019-02-27 16:50,50.6304483333333,-96.9807683333333,7.7,10.8,216,992.22,-17.1,60,0.32,0.0,1022.38,0.0
2019-02-27 17:00,50.6304483333333,-96.98077,8.0,11.3,219,992.16,-16.8,60,0.32,0.0,1022.29,90.0
2019-02-27 17:10,50.6304466666667,-96.98077,8.0,10.6,215,992.12,-16.6,60,0.31,0.0,1022.20,90.0
2019-02-27 17:20,50.6304466666667,-96.98077,7.9,10.1,213,992.09,-16.4,60,0.32,0.0,1022.09,90.0
2019-02-27 17:30,50.6304466666667,-96.9807766666667,8.2,11.3,211,992.06,-16.2,59,0.32,0.0,1022.01,90.0
2019-02-27 17:40,50.630445,-96.9807733333333,8.0,11.3,208,991.84,-16.0,59,0.32,0.0,1021.75,90.0
2019-02-27 17:50,50.6304466666667,-96.9807733333333,8.2,10.9,206,991.58,-15.6,59,0.32,0.0,1021.46,90.0
2019-02-27 18:00,50.6304483333333,-96.980775,8.1,10.4,215,991.55,-15.3,58,0.32,0.0,1021.39,0.0
2019-02-27 18:10,50.6304483333333,-96.9807733333333,7.4,10.5,216,991.60,-15.1,58,0.32,0.0,1021.40,0.0
2019-02-27 18:20,50.6304483333333,-96.9807733333333,8.7,12.6,214,991.61,-15.0,58,0.32,0.0,1021.38,0.0
2019-02-27 18:30,50.6304483333333,-96.9807716666667,9.3,11.6,205,991.44,-14.9,58,0.32,0.0,1021.18,0.0
2019-02-27 18:40,50.6304483333333,-96.98077,8.6,11.5,204,991.33,-14.5,58,0.32,0.0,1021.03,0.0
2019-02-27 18:50,50.6304883333333,-96.9807733333333,9.3,12.0,216,991.35,-14.3,58,0.33,0.0,1021.02,0.0
2019-02-27 19:00,50.63045,-96.980755,9.5,12.9,208,991.24,-14.0,58,0.33,0.0,1020.88,12.6
2019-02-27 19:10,50.630455,-96.9807633333333,9.9,12.9,216,991.19,-13.7,58,0.33,0.0,1020.80,12.6
2019-02-27 19:20,50.63045,-96.9807583333333,9.3,12.2,215,991.08,-13.5,58,0.33,0.0,1020.66,12.6
2019-02-27 19:30,50.63047,-96.98077,9.6,12.5,212,990.92,-13.2,57,0.33,0.0,1020.47,12.6
2019-02-27 19:40,50.63046,-96.980765,9.5,12.8,215,990.79,-13.1,58,0.34,0.0,1020.31,12.6
2019-02-27 19:50,50.63046,-96.9807683333333,9.6,12.7,216,990.76,-12.7,57,0.34,0.0,1020.24,12.6
2019-02-27 20:00,50.63046,-96.98077,8.7,11.5,217,990.63,-12.5,57,0.34,0.0,1020.08,360.0
2019-02-27 20:10,50.6304566666667,-96.9807666666667,8.4,11.7,215,990.48,-12.2,57,0.34,0.0,1019.90,360.0
2019-02-27 20:20,50.6304566666667,-96.9807666666667,9.2,12.4,209,990.34,-12.2,57,0.34,0.0,1019.74,360.0
2019-02-27 20:30,50.6304716666667,-96.9807516666667,7.7,12.6,196,990.00,-12.2,57,0.34,0.0,1019.38,360.0
2019-02-27 20:40,50.6304666666667,-96.9807366666667,11.2,14.1,180,989.80,-12.6,59,0.34,0.0,1019.18,360.0
2019-02-27 20:50,50.6304583333333,-96.9807566666667,11.9,14.8,182,989.83,-12.6,59,0.34,0.0,1019.20,360.0
2019-02-27 21:00,50.630445,-96.98077,12.3,15.0,184,989.73,-12.3,58,0.34,0.0,1019.06,167.4
2019-02-27 21:10,50.63045,-96.9807716666667,12.9,15.8,177,989.69,-12.3,59,0.35,0.0,1019.01,167.4
2019-02-27 21:20,50.6304483333333,-96.9807733333333,11.9,15.6,181,989.75,-12.1,59,0.35,0.0,1019.05,167.4
2019-02-27 21:30,50.6304483333333,-96.9807733333333,12.1,15.0,178,989.63,-12.1,60,0.35,0.0,1018.91,167.4
2019-02-27 21:40,50.6304483333333,-96.9807716666667,10.4,13.1,179,989.52,-11.8,60,0.35,0.0,1018.76,167.4
2019-02-27 21:50,50.6304483333333,-96.98077,9.5,12.3,188,989.45,-11.3,58,0.36,0.0,1018.64,167.4
2019-02-27 22:00,50.6304483333333,-96.9807683333333,11.0,13.6,181,989.37,-11.5,60,0.36,0.0,1018.55,192.6
2019-02-27 22:10,50.6304483333333,-96.9807666666667,8.8,12.4,185,989.36,-11.3,59,0.36,0.0,1018.53,192.6
2019-02-27 22:20,50.6304466666667,-96.980755,9.9,13.5,174,989.15,-11.4,60,0.36,0.0,1018.33,192.6
2019-02-27 22:30,50.6304533333333,-96.9807566666667,11.2,13.7,176,988.85,-11.9,62,0.36,0.0,1018.06,192.6
2019-02-27 22:40,50.6304516666667,-96.98076,13.6,17.3,176,988.58,-12.2,63,0.37,0.0,1017.81,192.6
2019-02-27 22:50,50.63045,-96.9807616666667,14.3,17.0,178,988.35,-12.4,63,0.37,0.0,1017.57,192.6
2019-02-27 23:00,50.63045,-96.9807633333333,13.1,16.9,180,988.26,-12.4,63,0.38,0.0,1017.47,142.0
2019-02-27 23:10,50.63044,-96.9807566666667,12.9,16.9,181,988.09,-12.6,64,0.38,0.0,1017.29,142.0
2019-02-27 23:20,50.6304433333333,-96.9807566666667,13.5,18.3,181,987.90,-12.8,66,0.38,0.0,1017.11,142.0
2019-02-27 23:30,50.6304516666667,-96.98076,13.0,17.7,182,987.80,-12.9,68,0.38,0.0,1017.00,142.0
2019-02-27 23:40,50.63044,-96.98076,14.0,18.6,184,987.66,-13.3,70,0.38,0.0,1016.85,142.0
